www.pogodaiklimat.ru

Погода и климат >> Архив погоды >> Россия >> Коми >> Печора


АРХИВ ПОГОДЫ в Печоре

Время (UTC), дата Ветер
(напр.,м/с)
 
Видим.   Явления Облачность Т
(С)
Тd
(С)
f
(%)
Тe
(С)
Тes
(С)
Комфортность P
(гПа)
Po
(гПа)
Тmin
(С)
Tmax
(С)
R
(мм)
R24
(мм)
S
(см)
06 17.02 ЮВ 4 15 км в посл. час снег 10/10 480 м
[Sc]
-10.1 -12.1 85 -17 -17 по сезону 989.8 982.3
09 17.02 ЮВ 4 8000 м слаб. снег 10/8 500 м
[Sc As trans]
-8.8 -11.2 83 -16 -16 по сезону 987.9 980.4
12 17.02 ЮВ 4 8000 м слаб. снег 10/8 720 м
[Sc As op]
-8.5 -11.3 80 -15 -15 по сезону 985.8 978.3
15 17.02 ЮВ 3 8000 м слаб. снег 10/6 1080 м
[Sc As op]
-8.2 -10.5 83 -14 -14 тепло 984.2 976.7 -8.2 0.2
18 17.02 ЮВ 3 2200 м снег 10/0
[As op]
-7.7 -9.9 84 -13 -13 тепло 984.0 976.7
21 17.02 ЮВ 3 3100 м снег 10/6 400 м
[Frnb As op]
-7.6 -9.4 87 -13 -13 тепло 983.8 976.5
00 18.02 ЮВ 2 3000 м снег 10/6 330 м
[Frnb As op]
-7.8 -9.6 87 -12 -12 тепло 984.7 977.2
03 18.02 В 1 6000 м слаб. снег 10/6 300 м
[Frnb As op]
-9.1 -10.7 88 -11 -11 тепло 985.8 978.3 -9.3 4 93
06 18.02 С 2 3500 м снег 10/6 400 м
[Frnb As op]
-8.3 -9.8 89 -13 -13 тепло 988.0 980.5
09 18.02 С 6-11
{11}
1700 м сильн. снег {метель} 10/6 420 м
[Sc As op]
-8.8 -11.2 83 -17 -17 по сезону 991.8 984.3
12 18.02 С 7-13
{14}
6000 м метель {снег} 9/6 570 м
[Sc Ci fib]
-12.7 -17.0 70 -22 -22 по сезону 997.8 990.1
15 18.02 С 6-10
{13}
15 км позёмок {снег} 8/0
[Ci fib]
-15.0 -18.4 75 -25 -25 прохладно 1002.6 994.9 -7.5 2
18 18.02 СЗ 3
{13}
15 км {снег, метель} ясно -20.8 -23.3 80 -29 -29 холодно 1006.5 998.6
21 18.02 штиль 0 15 км 3/0
[Cc]
-26.3 -28.7 80 -26 -26 по сезону 1008.2 1000.1
00 19.02 ЮВ 1 15 км ясно -28.7 -31.9 74 -33 -33 опасность
обморожения
1008.5 1000.2
03 19.02 ЮВ 2 15 км ясно -27.5 -30.7 74 -35 -35 опасность
обморожения
1008.8 1000.5 -30.4 89
06 19.02 ЮВ 3 800 м переохл. туман ?/? -24.4 -26.9 80 -33 -33 опасность
обморожения
1008.2 1000.1
09 19.02 ЮВ 5 15 км {туман} 1/0
[Ci fib]
-20.1 -22.7 80 -30 -30 очень
холодно
1006.4 998.5
12 19.02 ЮВ 3 15 км {туман} 8/0
[Ac trans]
-17.2 -19.8 80 -24 -24 прохладно 1005.1 997.3
15 19.02 ЮВ 3 15 км 6/0
[Ac trans]
-17.7 -20.3 80 -25 -25 прохладно 1004.7 996.8 -17.2
18 19.02 ЮВ 3 15 км 9/0
[Ac trans]
-15.8 -19.2 75 -23 -23 по сезону 1003.7 995.9
21 19.02 Ю 4 15 км 9/0
[Ac trans]
-15.5 -19.7 70 -23 -23 по сезону 1002.6 994.9
00 20.02 ЮВ 4 10 км слаб. снег 10/8 540 м
[Sc As op]
-16.1 -20.3 70 -24 -24 по сезону 1002.8 995.0
03 20.02 ЮВ 3 10 км слаб. снег 10/8 480 м
[Sc As op]
-16.5 -19.9 75 -23 -23 по сезону 1002.8 995.0 -17.7 0.2 89
06 20.02 Ю 3 7000 м слаб. снег 10/8 600 м
[Sc As op]
-16.1 -20.3 70 -23 -23 по сезону 1002.9 995.1
09 20.02 Ю 4 15 км {снег} 9/0
[Ac trans]
-13.9 -18.2 70 -21 -21 по сезону 1002.3 994.6
12 20.02 ЮВ 4 15 км {снег} 10/0
[Ac trans Ci fib]
-12.8 -17.1 70 -20 -20 по сезону 1001.0 993.3
15 20.02 ЮВ 4 15 км 10/0
[Ac trans Ci fib]
-12.9 -18.1 65 -20 -20 по сезону 999.1 991.4 -12.7 0.0
18 20.02 ЮВ 4 2200 м снег 10/10 210 м
[Frnb Ns]
-11.5 -14.3 80 -19 -19 по сезону 996.6 989.0
21 20.02 Ю 5 3000 м снег 10/10 300 м
[Frnb Ns]
-10.3 -13.1 80 -18 -18 по сезону 995.2 987.6
00 21.02 Ю 5 2400 м снег 10/10 240 м
[Frnb Ns]
-8.8 -11.7 79 -16 -16 по сезону 993.3 985.7
03 21.02 ЮВ 4 1900 м сильн. снег 10/10 150 м
[Frnb Ns]
-8.8 -11.2 83 -16 -16 по сезону 992.8 985.2 -12.9 4 90
06 21.02 ЮВ 4 3000 м снег 10/6 500 м
[Sc As op]
-10.1 -12.9 80 -17 -17 по сезону 993.5 985.9
09 21.02 ЮВ 3 1900 м сильн. снег 10/6 300 м
[Frnb As op]
-10.3 -13.1 80 -16 -16 по сезону 994.5 986.9
12 21.02 ЮВ 2 2100 м снег 10/6 360 м
[Frnb As op]
-10.0 -12.7 81 -14 -14 по сезону 996.5 988.9
15 21.02 С 2 3100 м снег 10/6 450 м
[Sc As op]
-10.3 -11.6 90 -15 -15 по сезону 999.0 991.4 -8.6 2
18 21.02 С 3 10 км слаб. снег 10/8 540 м
[Sc As op]
-11.6 -13.6 85 -18 -18 по сезону 1002.3 994.7
21 21.02 С 6 6000 м слаб. ливневой снег 8/8 660 м
[Cb cap]
-14.2 -16.9 80 -24 -24 по сезону 1006.7 998.9
00 22.02 С 6-10
{10}
6000 м слаб. ливневой снег 8/8 900 м
[Cb cap]
-17.4 -20.0 80 -28 -28 прохладно 1010.4 1002.6
03 22.02 С 4
{10}
15 км {ливн. осадки, метель} 6/0
[Ci fib]
-19.4 -22.0 80 -28 -28 прохладно 1014.7 1006.7 -19.5 1 93
06 22.02 С 3
{10}
15 км {ливн. осадки, метель} 1/0
[Ci fib]
-19.7 -22.3 80 -27 -27 прохладно 1018.1 1010.1 -20.8
09 22.02 С 5 15 км ясно -18.0 -21.4 75 -28 -27 холодно 1020.5 1012.5
12 22.02 С 4 15 км ясно -17.5 -21.7 70 -26 -26 холодно 1022.2 1014.3
15 22.02 С 2 15 км ясно -23.0 -25.6 79 -29 -29 очень
холодно
1024.4 1016.1 -17.2
18 22.02 СЗ 1 15 км ясно -26.6 -29.0 80 -30 -30 холодно 1024.5 1016.2
21 22.02 штиль 0 15 км ясно -28.9 -31.4 79 -29 -29 холодно 1023.2 1014.9
00 23.02 штиль 0 15 км ясно -32.5 -34.8 80 -33 -33 опасность
обморожения
1022.3 1013.8
03 23.02 В 2 15 км 4/0
[Cs]
-30.9 -33.9 75 -39 -39 опасность
обморожения
1020.1 1011.8 -32.5 91
06 23.02 ЮВ 1 15 км 9/0
[Cs]
-26.3 -29.4 75 -30 -29 холодно 1017.7 1009.5
09 23.02 ЮВ 2 15 км 9/0
[Ac trans Cs]
-20.6 -23.1 80 -27 -25 холодно 1014.1 1006.1
12 23.02 ЮВ 3 4900 м слаб. снег 10/6 540 м
[Sc As op]
-16.4 -19.0 80 -23 -23 прохладно 1010.3 1002.5
15 23.02 ЮВ 3 10 км слаб. снег 10/0
[As op]
-15.1 -17.8 80 -22 -22 по сезону 1009.2 1001.4 -15.0 0.0
18 23.02 ЮВ 2 5000 м слаб. снег 10/6 450 м
[Sc As op]
-13.5 -15.5 85 -18 -18 по сезону 1007.4 999.6
21 23.02 ЮВ 2 2100 м снег 10/8 450 м
[Sc As op]
-12.1 -14.1 85 -17 -17 по сезону 1005.4 997.8
00 24.02 Ю 3 5000 м слаб. снег 10/8 630 м
[Sc As op]
-10.2 -12.2 85 -16 -16 по сезону 1003.9 996.3
03 24.02 Ю 3 700 м сильн. снег 10/10 120 м
[Frnb Ns]
-9.8 -11.5 87 -16 -16 по сезону 1001.8 994.2 -15.1 4 95

 

Местоположение метеостанции Печора (Коми, Россия): широта 65.12 долгота 57.10 высота над уровнем моря 59 м.

В архиве по умолчанию представлена погода в Печоре за последнюю неделю. Архивные данные за месяц целиком и за предыдущие месяцы, начиная с января 2011 года, Вы можете получить, выбрав интересующий диапазон дат из раскрывающегося списка и нажав кнопку "Ввод!".


*Определитесь, кто Вы:
робот инопланетянин человек

Внимание! Время в таблицах - всемирное. Для получения местного времени необходимо прибавить поправку, которая равна 3 ч.

Смотрите также архив погоды в соседних городах и на ближайших метеорологических станциях:

Погода в Усть-Усе (Коми, Россия) (95 км)
Погода в Усть-Щугоре (Коми, Россия) (98 км)
Погода в Усинске (Коми, Россия) (102 км)
Погода в Ираеле (Коми, Россия) (105 км)
Погода в Мутном Материке (Коми, Россия) (128 км)
Погода в Вуктыле (Коми, Россия) (144 км)
Погода в Ижме (Коми, Россия) (150 км)
Погода в Кедва-Воме (Коми, Россия) (196 км)
Погода в Саранпауле (Ханты-Мансийский АО, Россия) (202 км)
Погода в Петруни (Коми, Россия) (222 км)

Пояснения к столбцам:

Ветер - указаны скорость ветра в м/с - средняя за 10 мин, порывы в срок и между сроками (в фигурных скобках) и направление, откуда дует ветер: С - северный, СВ - северо-восточный, В - восточный, ЮВ - юго-восточный, Ю - южный, ЮЗ - юго-западный, З - западный, СЗ - северо-западный.
Видимость - горизонтальная дальность видимости в метрах или километрах. При видимости от 1 до 10 км при отсутствии осадков обычно наблюдается дымка, при ухудшении видимости до 1 км и менее - туман. В сухую погоду видимость может ухудшаться дымом, пылью или мглою.
Явления - указаны атмосферные явления, наблюдавшиеся в срок или в последний час перед сроком; фигурными скобками обозначены явления, наблюдавшиеся между сроками (за 1-3 часа до срока); квадратными скобками обозначены град или гололедные отложения с указанием их диаметра в мм.
Облачность - указаны через наклонную черту общая и нижняя облачность в баллах и высота нижней границы облаков в метрах; квадратными скобками обозначены формы облаков: Ci - перистые, Cs - перисто-слоистые, Cc - перисто-кучевые, Ac - высококучевые, As - высокослоистые, Sc - слоисто-кучевые, Ns - слоисто-дождевые, Cu - кучевые, Cb - кучево-дождевые. Подробнее классификацию облаков см. в Атласе облаков (PDF).
T - Температура воздуха - температура, измеренная на высоте 2 м над землей.
Td - Температура точки росы - температура, при понижении до которой содержащийся в воздухе водяной пар достигнет насыщения.
f - Относительная влажность воздуха - влажноcть воздуха, измеренная на высоте 2 м над землей.
Te - Эффективная температура - температура, которую ощущает одетый по сезону человек в тени. Характеристика душности погоды. При расчете учитывается влияние влажности воздуха и скорости ветра на теплоощущения человека.
Tes - Эффективная температура на солнце - температура, которую ощущает человек, с поправкой на солнечный нагрев. Характеристика знойности погоды. Зависит от высоты солнца над горизонтом, облачности и скорости ветра. Ночью, в пасмурную погоду, а также при ветре 12 м/с и более поправка равна нулю.
P - Атмосферное давление - приведенное к уровню моря атмосферное давление.
Po - Атмосферное давление - измеренное на уровне метеостанции атмосферное давление.
Tmin - Минимальная температура - минимум температуры воздуха на высоте 2 м над землей.
Tmax - Максимальная температура - максимум температуры воздуха на высоте 2 м над землей.
R - Количество осадков - Количество выпавших осадков за период времени, мм. При наведении курсора мыши на число - период времени, за который выпало указанное количество осадков.
R24 - Количество осадков - Количество выпавших осадков за 24 часа, мм.
S - Снежный покров - Высота снежного покрова, см. При наведении курсора мыши на число - состояние снежного покрова и степень покрытия местности в баллах.